Regional Weather Roundup
Issued by NWS Portland, ME

Current Version | Previous Version | Text Only | Print | Product List | Glossary Off
Versions: 1 2 3 4 5 6 7 8 9 10 11 12 13 14 15 16 17 18 19 20 21 22 23 24 25 26 27 28 29 30 31 32 33 34 35 36 37 38 39 40 41 42 43 44 45 46 47 48 49 50

000
ASUS41 KGYX 222005
RWRGYX
WEATHER ROUNDUP FOR MAINE AND NEW HAMPSHIRE
NATIONAL WEATHER SERVICE GRAY ME
400 PM EDT WED MAR 22 2017

MEZ002-005-006-010-012-015-018-020-021-024-026-027-029-222100-
MAINE

CITY           SKY/WX    TMP DP  RH WIND       PRES   REMARKS
PORTLAND       MOSUNNY   23  -2  33 N25G38    29.98R WCI   7
SANFORD        MOSUNNY   23   1  38 W23G30    29.99R WCI   7
BAR HARBOR     FLURRIES  21  12  68 NW17G26   29.81R WCI   7
WISCASSET      SUNNY     24   0  35 NW8G25    29.95R
ROCKLAND       MOSUNNY   22   4  46 NW13G28   29.87R HAZE    WCI  10
FRYEBURG       SUNNY     21  -7  28 W18G28    30.00R WCI   6
LEWISTONAUBURN SUNNY     19  -1  41 NW23G32   29.99R WCI   2
AUGUSTA        CLOUDY    19  -1  41 NW17G35   29.94R WCI   4
WATERVILLE     PTSUNNY   20   1  43 N25G33    29.91R WCI   2
BANGOR         CLOUDY    19   8  62 NW29G43   29.87R BLWGSNOWWCI   0
GREENVILLE       N/A     12   1  61 NW22G39   29.79S WCI  -7
MILLINOCKET    CLOUDY    20   6  55 NW22G32   29.85R WCI   3
HOULTON        CLOUDY    21   6  52 N18G30    29.78R WCI   6
PRESQUE ISLE   PTSUNNY   18   5  57 NW28G33   29.86R WCI  -1
FRENCHVILLE    FLURRIES  15  -2  46 NW28G40   29.84R WCI  -5
CARIBOU        CLOUDY    17   4  56 N29G40    29.84R BLWGSNOWWCI  -2
$$

NHZ002-005-008-009-011-012-014-222100-
NEW HAMPSHIRE

CITY           SKY/WX    TMP DP  RH WIND       PRES   REMARKS
PORTSMOUTH     SUNNY     23  -4  29 NW31G48   30.00R WCI   6
ROCHESTER      SUNNY     21  -4  33 NW30G44   29.99R WCI   3
NASHUA         SUNNY     26  -2  29 NW30G38   30.08R WCI  10
MANCHESTER     SUNNY     23  -7  26 NW36G44   30.06R WCI   4
CONCORD        SUNNY     21  -2  36 NW28G43   30.07R WCI   3
LACONIA        SUNNY     19  -4  36 W16G33    30.08R WCI   4
PLYMOUTH       FAIR      17  -4  39 W21G37    30.10R WCI   0
BERLIN         PTSUNNY   13  -7  40 N20G31    30.04R WCI  -5
WHITEFIELD     PTSUNNY   13  -8  39 NW18G33   30.10R WCI  -4
JAFFREY        SUNNY     21 -10  25 NW21G36   30.07R WCI   5
KEENE          SUNNY     23  -2  33 N28       30.12R WCI   6
LEBANON        SUNNY     19  -3  38 NW18G32   30.16R WCI   4
MT WASHINGTON  BLWGSNOW -13 -13 100 NW70G76     N/A  VSB 1/8 WCI -54
$$

VTZ005-007-008-222100-
VERMONT

CITY           SKY/WX    TMP DP  RH WIND       PRES   REMARKS
ST JOHNSBURY     N/A     14  -2  49 MISG      30.16R
MONTPELIER     PTSUNNY   10  -3  55 NW18G33   30.19R BLWGSNOWWCI  -8
BURLINGTON     MOSUNNY   17  -2  43 N26G32    30.30R WCI  -2
$$

MAZ007-012-024-CTZ003-RIZ002-NYZ038-NYZ072-222100-
SOUTHERN NEW ENGLAND AND NY

CITY           SKY/WX    TMP DP  RH WIND       PRES   REMARKS
BOSTON         MOSUNNY   29  -3  25 NW31G41   30.04R WCI  13
WORCESTER      SUNNY     24  -7  25 NW23G38   30.01R WCI   9
NANTUCKET      SUNNY     36   7  29 NW25G43   29.95R
PROVIDENCE     MOSUNNY   33  -1  23 NW17G32   30.05R
HARTFORD       SUNNY     28  -3  26 NW23G33   30.14R WCI  14
ALBANY         MOSUNNY   26  -2  29 NW22G29   30.26R WCI  12
$$

ANZ081-ANZ082-ANZ150-NHZ014-MEZ023>029-222100-
COASTAL MARINE OBSERVATIONS

STATION/POSITION TIME  TEMP    WIND        PRES    WAVE
                       AIR SEA DIR/SP/G            HT/PER
                 (UTC) (F)     (DEG/KT/KT) (MB)    (FT/S)
MOUNT DESERT ROC 2000   21                 1008.8R
MATINICUS ROCK   1900   23     320/ 34/ 38 1009.5R
ISLE OF SHOALS   1900   23     300/ 40/ 45 1013.1F
JEFFREYS LEDGE   1906      42                N/A     9/ 6
CASHES LEDGE BUO 1950   28 39              1011.3R  10/ 7
GEORGES BANK BUO 1850   40 43              1007.3    5/ 5
$$

.............KEY..............
   WCI - WIND CHILL
   TC  - TEMPERATURE IN CELSIUS
   VSB - VISIBILITY IN MILES
   HX  - HEAT INDEX
   FAIR- INDICATES FEW OR NO CLOUDS BELOW 12,000 FT, WITH NO
         SIGNIFICANT WEATHER AND/OR OBSTRUCTIONS TO VISIBILITY.






USA.gov is the U.S. government's official web portal to all federal, state and local government web resources and services.